Change the Weather History Date:

Friday, November 16, 2012

  Actual Average Record
Temperature  
Mean Temperature 42 °F -  
Max Temperature 60 °F 51 °F 60 °F (2013)
Min Temperature 23 °F 25 °F 6 °F (2014)
Degree Days  
Heating Degree Days 24    
Moisture  
Dew Point 25 °F    
Average Humidity 58    
Maximum Humidity 88    
Minimum Humidity 23    
Precipitation  
Precipitation 0.00 in - - ()
Sea Level Pressure  
Sea Level Pressure 30.24 in    
Wind  
Wind Speed 9 mph ()    
Max Wind Speed 20 mph    
Max Gust Speed 28 mph    
Visibility 10.0 miles    
Events      
Averages and records for this station are not official NWS values.
T = Trace of Precipitation, MM = Missing Value Source: Averaged Metar Reports

Daily Weather History Graph

Daily Weather History Graph

Search for Another Location

Airport or City:

Trip Planner

Search our weather history database for the weather conditions in past years. The results will help you decide how hot, cold, wet, or windy it might be!

Date:

Astronomy

Nov. 16, 2012 Rise Set
Actual Time 7:33 AM CST 5:30 PM CST
Civil Twilight 7:04 AM CST 5:59 PM CST
Nautical Twilight 6:31 AM CST 6:31 PM CST
Astronomical Twilight 5:59 AM CST 7:03 PM CST
Moon 10:29 AM CST (11/16) 8:32 PM CST (11/16)
Length of Visible Light 10h 54m
Length of Day
9h 56m
Waxing Crescent, 12% of the Moon is Illuminated
Nov 16
Waxing Crescent
Nov 20
First Quarter
Nov 28
Full
Dec 6
Last Quarter
Dec 13
New

Hourly Weather History & Observations

Time (CST) Temp. Windchill Dew Point Humidity Pressure Visibility Wind Dir Wind Speed Gust Speed Precip Events Conditions
12:15 AM 32.5 °F 27.1 °F 22.6 °F 67% 30.39 in 10.0 mi South 5.8 mph - N/A   Clear
12:35 AM 33.3 °F 27.9 °F 23.2 °F 67% 30.39 in 10.0 mi WSW 5.8 mph - N/A   Clear
12:55 AM 30.9 °F 26.2 °F 22.5 °F 71% 30.39 in 10.0 mi SSW 4.6 mph - N/A   Clear
1:15 AM 28.0 °F 21.7 °F 21.4 °F 76% 30.38 in 10.0 mi SW 5.8 mph - N/A   Clear
1:35 AM 28.4 °F 20.4 °F 22.1 °F 77% 30.38 in 10.0 mi SW 8.1 mph - N/A   Clear
1:55 AM 28.4 °F 24.6 °F 21.9 °F 77% 30.37 in 10.0 mi SSW 3.5 mph - N/A   Clear
2:15 AM 28.4 °F - 22.1 °F 77% 30.36 in 10.0 mi Calm Calm - N/A   Clear
2:35 AM 30.4 °F 23.6 °F 23.4 °F 75% 30.36 in 10.0 mi South 6.9 mph - N/A   Clear
2:55 AM 28.8 °F 23.7 °F 20.8 °F 72% 30.36 in 10.0 mi SW 4.6 mph - N/A   Clear
3:35 AM 28.4 °F 20.4 °F 22.6 °F 79% 30.36 in 10.0 mi SW 8.1 mph - N/A   Clear
3:55 AM 29.3 °F 22.3 °F 23.4 °F 78% 30.36 in 10.0 mi SSW 6.9 mph - N/A   Clear
4:15 AM 28.2 °F 23.1 °F 22.8 °F 80% 30.35 in 10.0 mi WSW 4.6 mph - N/A   Clear
4:35 AM 27.1 °F 19.7 °F 21.9 °F 81% 30.35 in 10.0 mi SW 6.9 mph - N/A   Clear
4:55 AM 26.1 °F 17.6 °F 21.6 °F 83% 30.35 in 10.0 mi SW 8.1 mph - N/A   Clear
5:15 AM 25.0 °F 17.1 °F 20.8 °F 84% 30.34 in 10.0 mi SSW 6.9 mph - N/A   Clear
5:35 AM 25.3 °F 17.6 °F 21.4 °F 85% 30.34 in 10.0 mi SW 6.9 mph - N/A   Clear
5:55 AM 24.8 °F 16.9 °F 21.0 °F 86% 30.33 in 10.0 mi SW 6.9 mph - N/A   Clear
6:15 AM 24.4 °F 16.5 °F 21.0 °F 87% 30.33 in 10.0 mi SW 6.9 mph - N/A   Clear
6:35 AM 23.7 °F 16.6 °F 20.5 °F 87% 30.32 in 10.0 mi SSW 5.8 mph - N/A   Clear
6:55 AM 25.2 °F 18.3 °F 21.2 °F 85% 30.32 in 10.0 mi SW 5.8 mph - N/A   Clear
7:15 AM 23.7 °F 15.6 °F 20.3 °F 87% 30.32 in 10.0 mi WSW 6.9 mph - N/A   Clear
7:35 AM 25.9 °F 17.4 °F 22.6 °F 88% 30.32 in 10.0 mi SW 8.1 mph - N/A   Clear
7:55 AM 25.2 °F 18.3 °F 21.6 °F 86% 30.32 in 10.0 mi SW 5.8 mph - N/A   Clear
8:15 AM 27.3 °F 20.9 °F 23.9 °F 87% 30.32 in 10.0 mi SW 5.8 mph - N/A   Clear
8:35 AM 30.9 °F - 26.8 °F 85% 30.31 in 10.0 mi Calm Calm - N/A   Clear
8:55 AM 31.8 °F 28.5 °F 26.1 °F 79% 30.31 in 10.0 mi WNW 3.5 mph - N/A   Clear
9:15 AM 32.5 °F 27.1 °F 26.8 °F 79% 30.31 in 10.0 mi WSW 5.8 mph - N/A   Clear
9:35 AM 35.6 °F 31.7 °F 27.3 °F 72% 30.31 in 10.0 mi WSW 4.6 mph - N/A   Clear
9:55 AM 38.8 °F 35.4 °F 27.7 °F 64% 30.31 in 10.0 mi SW 4.6 mph - N/A   Clear
10:15 AM 44.2 °F 37.3 °F 28.6 °F 54% 30.30 in 10.0 mi South 15.0 mph - N/A   Clear
10:35 AM 49.1 °F - 27.5 °F 43% 30.29 in 10.0 mi South 16.1 mph 21.9 mph N/A   Clear
10:55 AM 50.2 °F - 25.9 °F 39% 30.28 in 10.0 mi South 13.8 mph - N/A   Clear
11:15 AM 51.8 °F - 25.2 °F 36% 30.28 in 10.0 mi South 13.8 mph 23.0 mph N/A   Clear
11:35 AM 53.6 °F - 24.8 °F 33% 30.26 in 10.0 mi South 19.6 mph 23.0 mph N/A   Clear
11:55 AM 55.2 °F - 24.4 °F 30% 30.26 in 10.0 mi South 17.3 mph 21.9 mph N/A   Clear
12:15 PM 55.8 °F - 24.4 °F 30% 30.24 in 10.0 mi South 15.0 mph 21.9 mph N/A   Clear
12:35 PM 56.5 °F - 23.9 °F 28% 30.23 in 10.0 mi South 18.4 mph 21.9 mph N/A   Clear
12:55 PM 58.1 °F - 23.7 °F 27% 30.22 in 10.0 mi SSW 18.4 mph 24.2 mph N/A   Clear
1:15 PM 58.3 °F - 23.4 °F 26% 30.21 in 10.0 mi South 16.1 mph 24.2 mph N/A   Clear
1:35 PM 59.2 °F - 23.4 °F 25% 30.20 in 10.0 mi South 17.3 mph 25.3 mph N/A   Clear
1:55 PM 59.7 °F - 23.9 °F 25% 30.19 in 10.0 mi South 16.1 mph 24.2 mph N/A   Clear
2:15 PM 59.5 °F - 23.9 °F 25% 30.18 in 10.0 mi South 16.1 mph 25.3 mph N/A   Clear
2:35 PM 60.3 °F - 23.4 °F 24% 30.17 in 10.0 mi South 16.1 mph 25.3 mph N/A   Clear
2:55 PM 60.8 °F - 23.0 °F 23% 30.16 in 10.0 mi South 18.4 mph 24.2 mph N/A   Clear
3:15 PM 60.6 °F - 23.0 °F 24% 30.15 in 10.0 mi South 19.6 mph 27.6 mph N/A   Clear
3:35 PM 60.4 °F - 23.2 °F 24% 30.15 in 10.0 mi South 16.1 mph 24.2 mph N/A   Clear
3:55 PM 59.9 °F - 23.2 °F 24% 30.15 in 10.0 mi South 17.3 mph 23.0 mph N/A   Clear
4:15 PM 59.9 °F - 23.9 °F 25% 30.15 in 10.0 mi South 17.3 mph 23.0 mph N/A   Clear
4:35 PM 59.2 °F - 25.3 °F 27% 30.14 in 10.0 mi South 17.3 mph - N/A   Clear
4:55 PM 58.1 °F - 25.5 °F 29% 30.14 in 10.0 mi South 13.8 mph 20.7 mph N/A   Clear
5:15 PM 56.3 °F - 25.7 °F 31% 30.13 in 10.0 mi SSE 13.8 mph - N/A   Clear
5:35 PM 52.3 °F - 27.3 °F 38% 30.13 in 10.0 mi SSE 11.5 mph - N/A   Clear
5:55 PM 49.5 °F - 27.1 °F 42% 30.13 in 10.0 mi SSE 12.7 mph - N/A   Clear
6:15 PM 47.5 °F - 27.0 °F 45% 30.13 in 10.0 mi SSE 12.7 mph - N/A   Clear
6:55 PM 44.6 °F 38.8 °F 28.6 °F 53% 30.13 in 10.0 mi SSE 11.5 mph - N/A   Clear
7:15 PM 45.0 °F 38.9 °F 29.7 °F 55% 30.13 in 10.0 mi SSE 12.7 mph - N/A   Clear
7:55 PM 43.5 °F 36.7 °F 30.2 °F 59% 30.13 in 10.0 mi SSE 13.8 mph - N/A   Clear
8:15 PM 43.7 °F 37.3 °F 31.1 °F 61% 30.13 in 10.0 mi SSE 12.7 mph - N/A   Clear
8:35 PM 43.9 °F 37.2 °F 31.6 °F 62% 30.12 in 10.0 mi SSE 13.8 mph - N/A   Clear
8:55 PM 45.0 °F 37.9 °F 32.0 °F 60% 30.11 in 10.0 mi SSE 16.1 mph - N/A   Clear
9:15 PM 44.6 °F 38.1 °F 32.0 °F 61% 30.10 in 10.0 mi SSE 13.8 mph - N/A   Clear
9:35 PM 44.8 °F 37.4 °F 32.4 °F 62% 30.09 in 10.0 mi South 17.3 mph - N/A   Clear
9:55 PM 45.0 °F 37.4 °F 32.2 °F 61% 30.09 in 10.0 mi SSE 18.4 mph 24.2 mph N/A   Clear
10:15 PM 43.2 °F 35.3 °F 32.0 °F 65% 30.09 in 10.0 mi SSE 17.3 mph - N/A   Clear
10:35 PM 42.4 °F 34.7 °F 32.0 °F 67% 30.08 in 10.0 mi SSE 16.1 mph - N/A   Clear
10:55 PM 41.4 °F 34.0 °F 32.0 °F 69% 30.08 in 10.0 mi SSE 13.8 mph - N/A   Clear
11:15 PM 41.2 °F 33.7 °F 32.0 °F 70% 30.08 in 10.0 mi SSE 13.8 mph 18.4 mph N/A   Clear
11:35 PM 41.7 °F 35.6 °F 32.7 °F 70% 30.08 in 10.0 mi South 10.4 mph - N/A   Clear
11:55 PM 42.1 °F 37.1 °F 33.3 °F 71% 30.08 in 10.0 mi South 8.1 mph - N/A   Clear